Weather History for KRBO - February, 2013

Change the Weather History Date:

Sunday, February 10, 2013

  Actual Average (KCRP) Record (KCRP)
Temperature  
Mean Temperature 74 °F 60 °F  
Max Temperature 82 °F 70 °F 90 °F (1957)
Min Temperature 66 °F 50 °F 26 °F (2011)
Degree Days  
Heating Degree Days 0 7  
Month to date heating degree days 74  
Since 1 July heating degree days 701  
Cooling Degree Days 9 2  
Month to date cooling degree days 13  
Year to date cooling degree days 43  
Growing Degree Days 24 (Base 50)    
Moisture  
Dew Point 59 °F    
Average Humidity 66    
Maximum Humidity 94    
Minimum Humidity 29    
Precipitation  
Precipitation 0.00 in 0.06 in 1.47 in (1927)
Month to date precipitation 0.58  
Year to date precipitation 2.12  
Snow  
Snow 0.00 in - - ()
Month to date snowfall  
Since 1 July snowfall  
Snow Depth -    
Sea Level Pressure  
Sea Level Pressure 29.83 in    
Wind  
Wind Speed 14 mph (ENE)    
Max Wind Speed 21 mph    
Max Gust Speed 30 mph    
Visibility 8 miles    
Events      
T = Trace of Precipitation, MM = Missing Value Source: NWS Daily Summary

Daily Weather History Graph

Daily Weather History Graph

Search for Another Location

Airport or City:

Trip Planner

Search our weather history database for the weather conditions in past years. The results will help you decide how hot, cold, wet, or windy it might be!

Date:

Astronomy

Feb. 10, 2013 Rise Set
Actual Time 7:11 AM CST 6:18 PM CST
Civil Twilight 6:47 AM CST 6:42 PM CST
Nautical Twilight 6:19 AM CST 7:10 PM CST
Astronomical Twilight 5:52 AM CST 7:37 PM CST
Moon 7:08 AM CST (2/10) 7:01 PM CST (2/10)
Length of Visible Light 11h 55m
Length of Day
11h 06m
New Moon, 0% of the Moon is Illuminated
Feb 10
New Moon
Feb 17
First Quarter
Feb 25
Full
Mar 4
Last Quarter
Mar 11
New

Hourly Weather History & Observations

Time (CST) Temp. Heat Index Dew Point Humidity Pressure Visibility Wind Dir Wind Speed Gust Speed Precip Events Conditions
12:15 AM 72.1 °F - 69.3 °F 91% 29.81 in 7.0 mi SE 17.3 mph - N/A   Overcast
12:35 AM 72.0 °F - 69.3 °F 91% 29.81 in 7.0 mi SSE 17.3 mph 25.3 mph N/A   Overcast
12:55 AM 72.0 °F - 69.3 °F 91% 29.81 in 7.0 mi SSE 17.3 mph 23.0 mph N/A   Overcast
1:15 AM 71.8 °F - 69.1 °F 91% 29.80 in 7.0 mi SSE 16.1 mph - N/A   Scattered Clouds
1:35 AM 72.0 °F - 69.3 °F 91% 29.80 in 7.0 mi SSE 18.4 mph - N/A   Clear
1:55 AM 72.0 °F - 69.3 °F 91% 29.80 in 7.0 mi SSE 18.4 mph 25.3 mph N/A   Mostly Cloudy
2:15 AM 72.0 °F - 69.3 °F 91% 29.79 in 7.0 mi SSE 18.4 mph - N/A   Overcast
2:35 AM 72.0 °F - 69.1 °F 91% 29.77 in 7.0 mi SE 19.6 mph - N/A   Overcast
2:55 AM 71.8 °F - 69.1 °F 91% 29.77 in 7.0 mi SE 17.3 mph - N/A   Mostly Cloudy
3:15 AM 71.6 °F - 68.9 °F 91% 29.77 in 7.0 mi SE 15.0 mph - N/A   Scattered Clouds
3:35 AM 71.4 °F - 68.9 °F 92% 29.76 in 7.0 mi SE 16.1 mph 20.7 mph N/A   Mostly Cloudy
3:55 AM 71.2 °F - 68.9 °F 92% 29.75 in 7.0 mi SSE 16.1 mph - N/A   Overcast
4:15 AM 70.7 °F - 68.4 °F 92% 29.76 in 5.0 mi SSE 11.5 mph - N/A   Mostly Cloudy
4:35 AM 70.7 °F - 68.4 °F 92% 29.76 in 5.0 mi South 11.5 mph - N/A   Mostly Cloudy
4:55 AM 70.3 °F - 68.2 °F 93% 29.76 in 5.0 mi SSE 9.2 mph - N/A   Overcast
5:15 AM 70.3 °F - 68.0 °F 92% 29.76 in 5.0 mi SSE 8.1 mph - N/A   Overcast
5:35 AM 70.7 °F - 68.2 °F 92% 29.76 in 5.0 mi SSE 9.2 mph - N/A   Overcast
5:55 AM 70.3 °F - 68.0 °F 92% 29.75 in 5.0 mi SSE 11.5 mph - N/A   Scattered Clouds
6:15 AM 70.0 °F - 68.0 °F 93% 29.76 in 5.0 mi SSE 12.7 mph - N/A   Clear
6:35 AM 70.0 °F - 68.0 °F 93% 29.76 in 5.0 mi SSE 11.5 mph - N/A   Clear
6:55 AM 69.8 °F - 68.0 °F 94% 29.77 in 5.0 mi SSE 10.4 mph - N/A   Clear
7:15 AM 69.8 °F - 68.0 °F 94% 29.78 in 5.0 mi SSE 8.1 mph - N/A   Clear
7:35 AM 69.8 °F - 68.0 °F 94% 29.78 in 4.0 mi SSE 8.1 mph - N/A   Clear
7:55 AM 70.0 °F - 68.0 °F 93% 29.79 in 4.0 mi SSE 8.1 mph - N/A   Clear
8:15 AM 70.2 °F - 68.0 °F 93% 29.80 in 4.0 mi South 5.8 mph - N/A   Clear
8:35 AM 70.7 °F - 68.4 °F 92% 29.81 in 4.0 mi Calm Calm - N/A   Clear
8:55 AM 73.0 °F - 69.4 °F 88% 29.82 in 5.0 mi SSW 8.1 mph - N/A   Clear
9:15 AM 75.2 °F - 69.1 °F 81% 29.84 in 7.0 mi SW 9.2 mph - N/A   Clear
9:35 AM 76.5 °F - 69.1 °F 78% 29.84 in 7.0 mi SW 9.2 mph - N/A   Clear
9:55 AM 77.4 °F - 68.7 °F 75% 29.86 in 10.0 mi West 8.1 mph - N/A   Clear
10:15 AM 78.1 °F - 68.2 °F 71% 29.87 in 10.0 mi West 9.2 mph - N/A   Clear
10:35 AM 78.3 °F - 68.0 °F 71% 29.87 in 7.0 mi West 11.5 mph - N/A   Clear
10:55 AM 78.3 °F - 69.1 °F 73% 29.87 in 10.0 mi NW 9.2 mph - N/A   Scattered Clouds
11:15 AM 77.9 °F - 68.9 °F 74% 29.87 in 7.0 mi NW 9.2 mph - N/A   Scattered Clouds
11:35 AM 77.4 °F - 68.9 °F 75% 29.87 in 7.0 mi NNW 9.2 mph - N/A   Mostly Cloudy
11:55 AM 79.0 °F - 68.5 °F 70% 29.86 in 7.0 mi NNW 8.1 mph - N/A   Scattered Clouds
12:15 PM 79.3 °F - 68.5 °F 69% 29.85 in 10.0 mi NNW 9.2 mph - N/A   Scattered Clouds
12:35 PM 80.1 °F 82.4 °F 67.3 °F 65% 29.84 in 10.0 mi NNW 8.1 mph - N/A   Clear
12:55 PM 80.8 °F 83.3 °F 67.6 °F 64% 29.83 in 10.0 mi NW 5.8 mph - N/A   Clear
1:15 PM 82.0 °F 84.9 °F 67.8 °F 62% 29.83 in 10.0 mi NNW 10.4 mph - N/A   Clear
1:35 PM 78.4 °F - 58.3 °F 50% 29.82 in 10.0 mi NNE 20.7 mph 27.6 mph N/A   Scattered Clouds
1:55 PM 77.9 °F - 57.2 °F 49% 29.82 in 10.0 mi NNE 16.1 mph - N/A   Clear
2:15 PM 77.2 °F - 55.6 °F 47% 29.82 in 10.0 mi NNE 12.7 mph 20.7 mph N/A   Clear
2:35 PM 76.5 °F - 52.3 °F 43% 29.82 in 10.0 mi North 19.6 mph 24.2 mph N/A   Clear
2:55 PM 75.9 °F - 50.7 °F 41% 29.81 in 10.0 mi NNE 13.8 mph - N/A   Scattered Clouds
3:15 PM 75.4 °F - 49.8 °F 41% 29.81 in 10.0 mi NNE 17.3 mph 21.9 mph N/A   Scattered Clouds
3:35 PM 75.6 °F - 49.1 °F 39% 29.81 in 10.0 mi NNE 16.1 mph - N/A   Clear
3:55 PM 74.7 °F - 49.3 °F 41% 29.81 in 10.0 mi NE 15.0 mph - N/A   Clear
4:15 PM 74.1 °F - 48.0 °F 40% 29.81 in 10.0 mi NE 13.8 mph 18.4 mph N/A   Clear
4:35 PM 74.8 °F - 48.7 °F 40% 29.82 in 10.0 mi NE 13.8 mph 18.4 mph N/A   Clear
4:55 PM 74.5 °F - 50.0 °F 42% 29.82 in 10.0 mi NE 12.7 mph - N/A   Scattered Clouds
5:15 PM 73.9 °F - 51.6 °F 45% 29.83 in 10.0 mi NE 15.0 mph 18.4 mph N/A   Overcast
5:35 PM 73.2 °F - 54.7 °F 52% 29.83 in 10.0 mi NE 15.0 mph 20.7 mph N/A   Overcast
5:55 PM 72.0 °F - 54.9 °F 55% 29.83 in 10.0 mi NE 15.0 mph 19.6 mph N/A   Overcast
6:15 PM 70.9 °F - 47.8 °F 44% 29.85 in 10.0 mi NE 15.0 mph - N/A   Overcast
6:35 PM 70.2 °F - 46.6 °F 43% 29.86 in 10.0 mi NE 17.3 mph 24.2 mph N/A   Overcast
6:55 PM 69.8 °F - 43.7 °F 39% 29.86 in 10.0 mi NE 17.3 mph 24.2 mph N/A   Overcast
7:15 PM 69.3 °F - 35.8 °F 29% 29.87 in 10.0 mi NE 18.4 mph 29.9 mph N/A   Overcast
7:35 PM 68.9 °F - 36.9 °F 31% 29.87 in 10.0 mi NE 16.1 mph 20.7 mph N/A   Overcast
7:55 PM 68.9 °F - 37.2 °F 31% 29.87 in 10.0 mi NE 13.8 mph 20.7 mph N/A   Overcast
8:15 PM 68.2 °F - 38.8 °F 34% 29.89 in 10.0 mi NE 12.7 mph 20.7 mph N/A   Overcast
8:35 PM 68.0 °F - 40.5 °F 37% 29.89 in 10.0 mi NE 12.7 mph 23.0 mph N/A   Overcast
8:55 PM 67.6 °F - 41.2 °F 38% 29.90 in 10.0 mi NE 12.7 mph - N/A   Overcast
9:15 PM 67.5 °F - 41.9 °F 39% 29.90 in 10.0 mi NE 15.0 mph 19.6 mph N/A   Overcast
9:35 PM 67.3 °F - 42.8 °F 41% 29.91 in 10.0 mi NE 16.1 mph - N/A   Overcast
9:55 PM 67.1 °F - 44.2 °F 44% 29.91 in 10.0 mi NE 12.7 mph - N/A   Overcast
10:15 PM 67.1 °F - 45.3 °F 45% 29.91 in 10.0 mi ENE 11.5 mph 19.6 mph N/A   Overcast
10:35 PM 67.1 °F - 46.4 °F 47% 29.91 in 10.0 mi NE 10.4 mph - N/A   Overcast
10:55 PM 67.1 °F - 47.3 °F 49% 29.93 in 10.0 mi NNE 8.1 mph - N/A   Overcast
11:15 PM 66.4 °F - 47.8 °F 51% 29.93 in 10.0 mi NNE 9.2 mph - N/A   Overcast
11:35 PM 66.2 °F - 48.2 °F 52% 29.94 in 10.0 mi NNE 6.9 mph - N/A   Overcast
11:55 PM 66.4 °F - 47.8 °F 51% 29.94 in 10.0 mi NE 6.9 mph - N/A   Overcast